Weather observations for the past three days for
Monticello White County Airport
Imperial (Metric)
Date Time (edt) Wind (mph) Vis. (mi.) Weather Sky Cond. Temperature (ºF) Relative Humidity Wind Chill (°F) Heat Index (°F) Pressure Precipitation (in)
Air Dwpt 6 hour altimeter (in) sea level (mb) 1 hr 3 hr 6 hr
Max. Min.
23 01:15 SW 15 10.00 Mostly Cloudy SCT095 BKN120 81.5 63.9 55% 83 29.77 0.0
23 00:55 SW 14 G 18 10.00 Overcast OVC095 81.5 64.4 56% 83 29.77 0.0
23 00:35 SW 14 10.00 Overcast BKN095 OVC120 81.1 64.4 57% 83 29.77 0.0
23 00:15 S 10 10.00 Overcast OVC120 80.8 64.4 58% 82 29.77 0.0
22 23:55 S 9 10.00 Overcast OVC120 80.8 64.4 58% 82 29.77 0.0
22 23:35 S 8 10.00 Mostly Cloudy BKN110 80.8 64.2 57% 82 29.77 0.0
22 23:15 S 8 10.00 Partly Cloudy SCT120 80.1 64.4 59% 82 29.79 0.0
22 22:55 S 7 10.00 Fair CLR 79.9 64.4 59% 82 29.79 0.0
22 22:35 S 8 10.00 Fair CLR 80.1 64.4 59% 82 29.8 0.0
22 22:15 SW 7 10.00 Fair CLR 81 64.4 57% 83 29.8 0.0
22 21:55 S 7 10.00 Fair CLR 81.7 64.4 56% 83 29.8 0.0
22 21:35 S 8 10.00 Fair CLR 82.6 64.2 54% 84 29.8 0.0
22 21:15 SW 9 10.00 Partly Cloudy SCT065 83.5 64.4 53% 85 29.8 0.0
22 20:55 S 9 10.00 Partly Cloudy SCT065 84 65.5 54% 86 29.81 0.0
22 20:35 S 9 10.00 Fair CLR 84.7 65.5 53% 87 29.81 0.0
22 20:15 S 8 10.00 Fair CLR 86.4 65.3 50% 88 29.82 0.0
22 19:55 S 9 10.00 Fair CLR 86.4 65.7 90.5 86 50% 88 29.84 0.0
22 19:35 SW 8 10.00 Fair CLR 86.4 65.1 49% 88 29.85 0.0
22 19:15 SW 8 10.00 Fair CLR 86.5 66 51% 89 29.86 0.0
22 18:55 SW 9 10.00 Fair CLR 87.3 65.7 49% 89 29.86 0.0
22 18:35 SW 10 10.00 Fair CLR 87.4 64.4 46% 89 29.87 0.0
22 18:15 SW 10 10.00 Fair CLR 87.4 64.4 46% 89 29.87 0.0
22 17:55 SW 13 G 17 10.00 Fair CLR 87.8 62.8 43% 89 29.88 0.0
22 17:35 SW 13 G 21 10.00 Fair CLR 88.3 62.4 42% 89 29.88 0.0
22 17:15 SW 14 10.00 Fair CLR 88.9 62.8 42% 90 29.89 0.0
22 16:55 SW 15 G 21 10.00 Fair CLR 88.9 62.8 42% 90 29.9 0.0
22 16:35 SW 15 G 21 10.00 Partly Cloudy SCT055 SCT070 90.3 64.8 43% 92 29.9 0.0
22 16:15 SW 16 G 20 10.00 Partly Cloudy SCT055 SCT070 SCT080 88.7 64.8 45% 90 29.91 0.0
22 15:55 SW 12 G 18 10.00 Partly Cloudy SCT055 SCT070 88.2 64.8 46% 90 29.92 0.0
22 15:35 SW 13 G 20 10.00 Partly Cloudy SCT055 SCT070 88.5 65.7 47% 91 29.92 0.0
22 15:15 SW 14 G 21 10.00 Partly Cloudy SCT055 SCT070 88.7 64.9 45% 91 29.93 0.0
22 14:55 SW 14 G 21 10.00 Partly Cloudy SCT049 SCT070 90.5 64.8 43% 92 29.93 0.0
22 14:35 SW 13 G 20 10.00 Partly Cloudy SCT049 SCT060 88.2 65.7 47% 90 29.94 0.0
22 14:15 SW 10 10.00 Partly Cloudy SCT049 87.4 65.1 48% 89 29.94 0.0
22 13:55 SW 13 G 20 10.00 Mostly Cloudy BKN047 BKN060 87.4 66 88.9 74.5 49% 90 29.95 0.0
22 13:35 SW 15 G 21 10.00 Mostly Cloudy BKN047 BKN055 BKN065 87.6 66.2 49% 90 29.96 0.0
22 13:15 SW 17 G 22 10.00 Partly Cloudy SCT045 SCT050 SCT070 87.6 66.9 50% 91 29.97 0.0
22 12:55 SW 13 10.00 Partly Cloudy SCT050 SCT060 SCT070 87.8 67.1 50% 91 29.97 0.0
22 12:35 SW 14 G 20 10.00 Partly Cloudy SCT043 SCT049 87.6 67.5 51% 91 29.98 0.0
22 12:15 SW 10 G 24 10.00 Partly Cloudy SCT043 SCT060 86.7 66.9 52% 90 29.99 0.0
22 11:55 SW 9 10.00 Partly Cloudy SCT037 85.5 68.2 56% 89 30 0.0
22 11:35 SW 14 G 18 10.00 Fair CLR 86 68.5 56% 90 30.01 0.0
22 11:15 SW 15 10.00 Fair CLR 84.4 68 58% 88 30.02 0.0
22 10:55 SW 10 10.00 Fair CLR 83.1 67.8 60% 86 30.02 0.0
22 10:35 SW 9 10.00 Fair CLR 82.2 68 62% 85 30.02 0.0
22 10:15 SW 12 10.00 Fair CLR 81.1 67.3 63% 84 30.03 0.0
22 09:55 SW 12 G 16 10.00 Fair CLR 81.9 67.6 62% 85 30.03 0.0
22 09:35 SW 10 10.00 Fair CLR 81.5 67.1 62% 84 30.04 0.0
22 09:15 SW 8 10.00 Fair CLR 80.1 67.5 66% 83 30.04 0.0
22 08:55 S 7 10.00 Fair CLR 78.3 67.3 69% 80 30.05 0.0
22 08:35 S 7 10.00 Fair CLR 77.4 66.9 70% 79 30.05 0.0
22 08:15 S 7 10.00 Fair CLR 76.3 66.9 73% 78 30.05 0.0
22 07:55 S 6 10.00 Fair CLR 74.5 66.2 76.1 72.5 76% 30.05 0.0
22 07:35 S 6 10.00 Fair CLR 73.4 66 78% 30.06 0.0
22 07:15 S 6 10.00 Fair CLR 73.4 66 78% 30.06 0.0
22 06:55 S 5 10.00 Fair CLR 72.5 65.8 80% 30.06 0.0
22 06:35 S 6 10.00 Fair CLR 72.5 65.7 79% 30.06 0.0
22 06:15 S 5 10.00 Fair CLR 72.9 65.7 78% 30.06 0.0
22 05:55 S 5 10.00 Fair CLR 72.9 65.7 78% 30.06 0.0
22 05:35 S 5 10.00 Fair CLR 72.9 65.5 78% 30.06 0.0
22 05:15 S 5 10.00 Fair CLR 74.3 65.3 74% 30.06 0.0
22 04:55 S 5 10.00 Fair CLR 73.9 65.5 75% 30.07 0.0
22 04:35 S 3 10.00 Fair CLR 74.5 65.5 74% 30.07 0.0
22 04:15 Calm 10.00 Fair CLR 74.5 65.8 75% 30.07 0.0
22 03:55 Calm 10.00 Fair CLR 73.6 66.4 78% 30.07 0.0
22 03:35 SW 5 10.00 Fair CLR 73.2 66.2 79% 30.07 0.0
22 03:15 S 5 10.00 Fair CLR 75 65.7 73% 76 30.07 0.0
22 02:55 S 3 10.00 Fair CLR 75.4 65.7 72% 77 30.07 0.0
22 02:35 S 3 10.00 Fair CLR 75.7 65.5 71% 77 30.07 0.0
22 02:15 Calm 10.00 Fair CLR 75.4 66.2 73% 77 30.08 0.0
22 01:55 Calm 10.00 Fair CLR 75.6 66 86.9 75.2 72% 77 30.08 0.0
22 01:35 SW 3 10.00 Fair CLR 75.4 65.7 72% 77 30.08 0.0
22 01:15 S 3 10.00 Fair CLR 77.2 65.5 67% 79 30.08 0.0
22 00:55 S 6 10.00 Fair CLR 78.4 65.3 64% 80 30.08 0.0
22 00:35 S 5 10.00 Fair CLR 78.4 65.5 65% 80 30.08 0.0
22 00:15 S 5 10.00 Fair CLR 78.4 65.7 65% 80 30.08 0.0
21 23:55 S 5 10.00 Fair CLR 78.3 65.5 65% 80 30.08 0.0
21 23:35 S 3 10.00 Fair CLR 78.8 65.7 64% 81 30.09 0.0
21 23:15 Calm 10.00 Fair CLR 78.4 67.5 69% 81 30.09 0.0
21 22:55 S 3 10.00 Fair CLR 79.3 66.4 65% 81 30.09 0.0
21 22:35 S 3 10.00 Fair CLR 80.6 64.9 59% 82 30.1 0.0
21 22:15 S 3 10.00 Fair CLR 81.5 64.6 57% 83 30.1 0.0
21 21:55 S 3 10.00 Fair CLR 81.9 64.6 56% 84 30.1 0.0
21 21:35 S 3 10.00 Fair CLR 82.4 64.8 55% 84 30.1 0.0
21 21:15 S 3 10.00 Fair CLR 83.3 65.1 54% 85 30.1 0.0
21 20:55 Calm 10.00 Fair CLR 84 65.5 54% 86 30.1 0.0
21 20:35 S 5 10.00 Fair CLR 85.1 65.8 53% 87 30.11 0.0
21 20:15 SW 3 10.00 Fair CLR 86.2 65.7 50% 88 30.11 0.0
21 19:55 S 6 10.00 Fair CLR 87.1 64.6 91.2 87.1 47% 89 30.11 0.0
21 19:35 S 7 10.00 Fair CLR 87.8 64.4 46% 89 30.11 0.0
21 19:15 SW 8 10.00 Fair CLR 88.3 64.6 45% 90 30.11 0.0
21 18:55 SW 8 10.00 Fair CLR 88.7 63.5 43% 90 30.11 0.0
21 18:35 SW 10 10.00 Fair CLR 89.1 63.5 43% 90 30.11 0.0
21 18:15 SW 12 10.00 Fair CLR 89.6 63.9 42% 91 30.11 0.0
21 17:55 SW 12 10.00 Partly Cloudy SCT060 89.6 63.1 41% 91 30.12 0.0
21 17:35 SW 10 10.00 Partly Cloudy SCT060 89.8 63.7 42% 91 30.13 0.0
21 17:15 SW 8 10.00 Partly Cloudy SCT060 90.5 64 42% 92 30.14 0.0
21 16:55 SW 9 10.00 Partly Cloudy SCT060 91 64 41% 93 30.14 0.0
21 16:35 SW 10 10.00 Fair CLR 90.1 63.1 41% 91 30.14 0.0
21 16:15 SW 9 10.00 Fair CLR 90.5 63.5 41% 92 30.15 0.0
21 15:55 SW 7 10.00 Fair CLR 90 63.9 42% 91 30.16 0.0
21 15:35 SW 8 10.00 Partly Cloudy SCT060 89.8 63.7 42% 91 30.16 0.0
21 15:15 SW 6 10.00 Fair CLR 89.8 63.9 42% 91 30.17 0.0
21 14:55 SW 6 10.00 Fair CLR 90.1 64 42% 92 30.18 0.0
21 14:35 SW 6 10.00 Fair CLR 89.8 63.9 42% 91 30.18 0.0
21 14:15 W 7 10.00 Partly Cloudy SCT055 89.8 64.4 43% 91 30.19 0.0
21 13:55 SW 10 10.00 Fair CLR 89.4 63.3 89.6 72 42% 90 30.2 0.0
21 13:35 SW 8 10.00 Partly Cloudy SCT055 88.9 63.9 43% 90 30.2 0.0
21 13:15 W 6 10.00 Partly Cloudy SCT055 88.7 64.4 45% 90 30.21 0.0
21 12:55 S 6 10.00 Partly Cloudy SCT065 88.2 64.8 46% 90 30.21 0.0
21 12:35 SW 5 10.00 Partly Cloudy SCT050 87.1 64.4 47% 89 30.22 0.0
21 12:15 SW 5 10.00 Partly Cloudy SCT050 88 64.6 46% 90 30.22 0.0
21 11:55 SW 3 10.00 Fair CLR 86.9 63.1 45% 88 30.22 0.0
21 11:35 W 5 10.00 Fair CLR 86.5 63.3 46% 88 30.23 0.0
21 11:15 W 6 10.00 Fair CLR 86.4 65.8 50% 89 30.23 0.0
21 10:55 W 5 10.00 Fair CLR 85.6 65.8 52% 88 30.23 0.0
21 10:35 W 5 10.00 Fair CLR 84.6 68.2 58% 88 30.24 0.0
21 10:15 SW 3 10.00 Fair CLR 83.3 67.8 60% 86 30.24 0.0
21 09:55 W 6 10.00 Fair CLR 82.6 69.4 65% 86 30.25 0.0
21 09:35 SW 6 10.00 Fair CLR 80.6 69.1 68% 84 30.24 0.0
21 09:15 W 5 10.00 Fair CLR 78.8 69.4 73% 81 30.25 0.0
21 08:55 SW 3 10.00 Fair CLR 76.6 70 80% 78 30.25 0.0
21 08:35 Calm 7.00 Fair CLR 74.5 70 86% 30.25 0.0
21 08:15 Calm 5.00 Fog/Mist CLR 73 70.5 92% 30.24 0.0
21 07:55 Calm 5.00 Fog/Mist CLR 71.8 70.3 74.3 68.2 95% 30.24 0.0
21 07:35 Calm 5.00 Fog/Mist CLR 70.3 68.9 95% 30.24 0.0
21 07:15 Calm 4.00 Fog/Mist CLR 69.4 68 95% 30.24 0.0
21 06:55 Calm 4.00 Fog/Mist CLR 68.7 67.3 95% 30.24 0.0
21 06:35 Calm 3.00 Fog/Mist CLR 68.5 67.1 95% 30.23 0.0
21 06:15 Calm 4.00 Fog/Mist CLR 68.9 67.3 95% 30.23 0.0
21 05:55 Calm 5.00 Fog/Mist CLR 68.5 67.3 96% 30.22 0.0
21 05:35 Calm 7.00 Fair CLR 68.9 67.5 95% 30.22 0.0
21 05:15 Calm 7.00 Fair CLR 69.4 68 95% 30.22 0.0
21 04:55 Calm 10.00 Fair CLR 70.7 69.3 95% 30.22 0.0
21 04:35 Calm 10.00 Fair CLR 71.1 69.6 95% 30.22 0.0
21 04:15 Calm 10.00 Fair CLR 70 68.5 95% 30.21 0.0
21 03:55 Calm 10.00 Fair CLR 70.9 69.4 95% 30.22 0.0
21 03:35 Calm 10.00 Fair CLR 71.6 69.8 94% 30.22 0.0
21 03:15 Calm 10.00 Fair CLR 71.6 69.3 92% 30.22 0.0
21 02:55 Calm 10.00 Fair CLR 72.7 68.9 88% 30.22 0.0
21 02:35 Calm 10.00 Fair CLR 73.8 68.9 85% 30.22 0.0
21 02:15 Calm 10.00 Fair CLR 73.6 68.7 85% 30.23 0.0
21 01:55 Calm 10.00 Fair CLR 74.5 68.2 88 74.5 81% 30.23 0.0
21 01:35 Calm 10.00 Fair CLR 75.4 68.2 78% 76 30.23 0.0
21 01:15 Calm 10.00 Fair CLR 75 68.2 79% 76 30.23 0.0
21 00:55 NW 6 10.00 Fair CLR 76.1 67.5 75% 78 30.23 0.0
21 00:35 Calm 10.00 Fair CLR 77.5 66.9 70% 79 30.23 0.0
21 00:15 Calm 10.00 Fair CLR 77.2 67.1 71% 79 30.23 0.0
20 23:55 Calm 10.00 Fair CLR 77.7 67.5 71% 80 30.23 0.0
20 23:35 Calm 10.00 Fair CLR 79.2 66.7 66% 81 30.23 0.0
20 23:15 Calm 10.00 Fair CLR 78.6 67.3 68% 81 30.23 0.0
20 22:55 Calm 10.00 Fair CLR 79.7 67.3 66% 82 30.23 0.0
20 22:35 Calm 10.00 Fair CLR 79.7 68 68% 82 30.23 0.0
20 22:15 Calm 10.00 Fair CLR 80.1 67.1 65% 82 30.23 0.0
20 21:55 Calm 10.00 Fair CLR 80.6 67.1 64% 83 30.22 0.0
20 21:35 Calm 10.00 Fair CLR 81.3 68.4 65% 84 30.22 0.0
20 21:15 Calm 10.00 Fair CLR 82.8 67.1 59% 85 30.22 0.0
20 20:55 Calm 10.00 Fair CLR 85.3 66.9 54% 88 30.22 0.0
20 20:35 Calm 10.00 Fair CLR 86 66.9 53% 89 30.22 0.0
20 20:15 SW 5 10.00 Fair CLR 87.3 65.8 49% 90 30.21 0.0
20 19:55 SW 6 10.00 Fair CLR 87.8 66.4 91.4 87.4 49% 90 30.21 0.0
20 19:35 W 6 10.00 Fair CLR 88.7 65.1 46% 91 30.22 0.0
20 19:15 SW 7 10.00 Fair CLR 89.2 64.8 44% 91 30.22 0.0
20 18:55 SW 7 10.00 Fair CLR 89.8 65.3 44% 92 30.22 0.0
20 18:35 SW 7 10.00 Fair CLR 90.5 63.3 40% 92 30.22 0.0
20 18:15 S 6 10.00 Fair CLR 90.1 62.6 40% 91 30.22 0.0
20 17:55 SW 7 10.00 Fair CLR 91 61.9 38% 91 30.22 0.0
20 17:35 SW 7 10.00 Fair CLR 91.2 62.8 39% 92 30.22 0.0
20 17:15 S 7 10.00 Fair CLR 91 64 41% 93 30.23 0.0
20 16:55 SW 3 10.00 Fair CLR 90.9 63.5 40% 92 30.23 0.0
20 16:35 S 6 10.00 Fair CLR 90.9 64.9 42% 93 30.24 0.0
20 16:15 SW 5 10.00 Fair CLR 90.9 64.8 42% 93 30.24 0.0
20 15:55 S 6 10.00 Fair CLR 90.1 64.6 43% 92 30.25 0.0
20 15:35 S 5 10.00 Fair CLR 90.7 65.8 44% 93 30.25 0.0
20 15:15 SW 7 10.00 Fair CLR 90.7 66.6 45% 94 30.26 0.0
20 14:55 W 6 10.00 Fair CLR 90.7 66.6 45% 94 30.26 0.0
20 14:35 S 6 10.00 Partly Cloudy SCT050 90.3 66.6 46% 93 30.27 0.0
20 14:15 SW 6 10.00 Partly Cloudy SCT050 88.3 65.8 47% 91 30.27 0.0
20 13:55 Calm 10.00 Mostly Cloudy SCT050 BKN060 87.8 65.5 90.1 75.7 48% 90 30.27 0.0
20 13:35 Calm 10.00 Partly Cloudy SCT050 SCT060 90.1 65.3 44% 92 30.27 0.0
20 13:15 SW 6 10.00 Fair CLR 87.8 66.7 50% 91 30.28 0.0
20 12:55 Calm 10.00 Partly Cloudy SCT044 88 66.4 49% 91 30.28 0.0
20 12:35 SW 6 10.00 Partly Cloudy SCT042 87.4 68.5 54% 91 30.29 0.0
20 12:15 Calm 10.00 Fair CLR 87.3 68.9 55% 91 30.29 0.0
20 11:55 Calm 10.00 Fair CLR 86.4 68.4 55% 90 30.29 0.0
20 11:35 Calm 10.00 Fair CLR 85.8 68.7 57% 90 30.3 0.0
20 11:15 Calm 10.00 Fair CLR 84.9 69.6 60% 89 30.3 0.0
20 10:55 Calm 10.00 Partly Cloudy SCT075 83.7 69.1 62% 87 30.3 0.0
20 10:35 Calm 10.00 Partly Cloudy SCT075 83.1 68.5 62% 86 30.3 0.0
20 10:15 Calm 10.00 Fair CLR 82.6 67.3 60% 85 30.3 0.0
20 09:55 SW 5 10.00 Partly Cloudy SCT075 81.9 68.9 65% 85 30.3 0.0
20 09:35 SW 7 10.00 Partly Cloudy SCT075 81.5 68.9 66% 85 30.3 0.0
20 09:15 Calm 10.00 Partly Cloudy SCT075 79.9 68.7 69% 83 30.29 0.0
20 08:55 Calm 10.00 Fair CLR 79 68.5 70% 81 30.29 0.0
20 08:35 Calm 10.00 Fair CLR 78.1 68 71% 80 30.29 0.0
20 08:15 Calm 10.00 Fair CLR 77.2 68.4 74% 79 30.28 0.0
20 07:55 Calm 10.00 Partly Cloudy SCT060 SCT070 75.6 68.5 77.7 72.5 79% 76 30.28 0.0
20 07:35 Calm 10.00 Overcast BKN065 OVC070 74.3 68.2 81% 30.27 0.0
20 07:15 Calm 10.00 Partly Cloudy SCT070 73.6 68 83% 30.27 0.0
20 06:55 Calm 10.00 Partly Cloudy SCT055 73 67.6 83% 30.27 0.0
20 06:35 Calm 10.00 Mostly Cloudy BKN055 BKN070 72.7 68.2 86% 30.27 0.0
20 06:15 Calm 10.00 Mostly Cloudy BKN055 BKN070 73.2 68 84% 30.27 0.0
20 05:55 Calm 10.00 Mostly Cloudy BKN055 BKN070 73.2 68.5 85% 30.26 0.0
20 05:35 Calm 10.00 Partly Cloudy SCT055 72.9 68.2 85% 30.25 0.0
20 05:15 Calm 10.00 Fair CLR 73.6 68 83% 30.25 0.0
20 04:55 Calm 10.00 Fair CLR 72.9 68 85% 30.25 0.0
20 04:35 Calm 10.00 Fair CLR 73.9 68 82% 30.25 0.0
20 04:15 Calm 10.00 Fair CLR 74.5 68 80% 30.25 0.0
20 03:55 Calm 10.00 Fair CLR 75.6 67.8 77% 77 30.25 0.0
20 03:35 Calm 10.00 Fair CLR 76.6 67.6 74% 78 30.25 0.0
20 03:15 Calm 10.00 Fair CLR 76.5 68 75% 78 30.24 0.0
20 02:55 Calm 10.00 Fair CLR 77 68 74% 79 30.24 0.0
20 02:35 Calm 10.00 Fair CLR 77.2 68.4 74% 79 30.24 0.0
20 02:15 Calm 10.00 Fair CLR 77.5 68.5 74% 79 30.24 0.0
20 01:55 Calm 10.00 Fair CLR 78.1 69.1 87.4 77 74% 80 30.24 0.0
20 01:35 Calm 10.00 Fair CLR 77.9 69.8 76% 80 30.24 0.0
Date Time (edt) Wind (mph) Vis. (mi.) Weather Sky Cond. Air Dwpt Max. Min. Relative Humidity Wind Chill (°F) Heat Index (°F) altimeter (in) sea level (mb) 1 hr 3 hr 6 hr
6 hour
Temperature (ºF) Pressure Precipitation (in)